Back to catalog

THOR ABLESTAR DEB

AlivePO
NORAD 1608·DEBRIS·🇺🇸 United States

Launched Dec 13, 1964 from Vandenberg Space Force Base

Loading…

Next Passes (next 24 hours)

TLE

FreshSource: Space-Track

Epoch: Sep 14, 2026, 05:19 UTC

1 01608U 64083H   26257.22213265  .00000661  00000-0  56138-3 0  9990
2 01608  89.7603  63.9737 0015965 194.9056 340.1311 13.86329923 87256

Track THOR ABLESTAR DEB in real time with AllMySat

Download on the App Store